LOT295 EPRA-EPKK

Flight info

Callsign LOT295
Flight time 0h 41m
Altitude 18000
Route RUXOM DCT KUKAM
Aircraft B738/M-SDE2E3FGHIRWXY/LB1

Departure

Time 2026-04-26 15:41
Airport Warsaw Radom Airport (EPRA)

Arrival

Time 2026-04-26 16:22
Airport Kraków John Paul II International Airport (EPKK)
Time Latitude Longitude Altitude Speed Heading
2026-04-26 15:24 51.39155 21.20038 617 ft 0 kts 74°
2026-04-26 15:31 51.39153 21.20026 631 ft 4 kts 77°
2026-04-26 15:32 51.39152 21.19970 631 ft 4 kts 113°
2026-04-26 15:32 51.39169 21.19941 626 ft 0 kts 165°
2026-04-26 15:34 51.39162 21.19944 631 ft 3 kts 165°
2026-04-26 15:35 51.39123 21.19960 627 ft 9 kts 165°
2026-04-26 15:35 51.39040 21.19995 620 ft 16 kts 165°
2026-04-26 15:35 51.38954 21.20053 623 ft 11 kts 118°
2026-04-26 15:35 51.38965 21.20176 622 ft 11 kts 75°
2026-04-26 15:36 51.38984 21.20295 624 ft 11 kts 74°
2026-04-26 15:36 51.39009 21.20407 626 ft 11 kts 53°
2026-04-26 15:36 51.39037 21.20511 617 ft 10 kts 77°
2026-04-26 15:36 51.39055 21.20620 617 ft 10 kts 77°
2026-04-26 15:37 51.39071 21.20726 628 ft 10 kts 76°
2026-04-26 15:37 51.39089 21.20833 624 ft 11 kts 75°
2026-04-26 15:37 51.39110 21.20971 619 ft 15 kts 76°
2026-04-26 15:37 51.39138 21.21151 624 ft 19 kts 76°
2026-04-26 15:38 51.39173 21.21366 617 ft 20 kts 75°
2026-04-26 15:38 51.39206 21.21584 629 ft 20 kts 76°
2026-04-26 15:38 51.39239 21.21794 619 ft 19 kts 76°
2026-04-26 15:38 51.39271 21.21998 620 ft 19 kts 76°
2026-04-26 15:39 51.39255 21.22185 621 ft 18 kts 142°
2026-04-26 15:39 51.39177 21.22225 623 ft 9 kts 166°
2026-04-26 15:39 51.39114 21.22250 630 ft 9 kts 166°
2026-04-26 15:39 51.39074 21.22250 630 ft 9 kts 211°
2026-04-26 15:40 51.39043 21.22119 626 ft 14 kts 255°
2026-04-26 15:40 51.38977 21.21720 623 ft 72 kts 256°
2026-04-26 15:40 51.38790 21.20599 627 ft 134 kts 255°
2026-04-26 15:40 51.38489 21.18993 964 ft 157 kts 262°
2026-04-26 15:41 51.38193 21.17202 1534 ft 177 kts 262°
2026-04-26 15:41 51.37870 21.15202 2208 ft 188 kts 263°
2026-04-26 15:41 51.37521 21.13135 2872 ft 199 kts 263°
2026-04-26 15:41 51.37157 21.10891 3362 ft 214 kts 262°
2026-04-26 15:42 51.36768 21.08537 4083 ft 224 kts 262°
2026-04-26 15:42 51.36403 21.06075 4867 ft 230 kts 263°
2026-04-26 15:42 51.35662 21.03726 5714 ft 246 kts 237°
2026-04-26 15:42 51.34520 21.01650 6544 ft 254 kts 235°
2026-04-26 15:43 51.33306 20.99463 7041 ft 270 kts 234°
2026-04-26 15:43 51.32038 20.97190 7723 ft 278 kts 234°
2026-04-26 15:43 51.29442 20.92551 9366 ft 285 kts 235°
2026-04-26 15:44 51.28113 20.90172 10184 ft 289 kts 235°
2026-04-26 15:44 51.25327 20.85156 11048 ft 323 kts 236°
2026-04-26 15:44 51.23789 20.82377 11334 ft 343 kts 236°
2026-04-26 15:45 51.20538 20.76558 12657 ft 358 kts 237°
2026-04-26 15:45 51.18865 20.73575 13413 ft 364 kts 238°
2026-04-26 15:46 51.15442 20.67476 14829 ft 373 kts 239°
2026-04-26 15:46 51.13707 20.64394 15661 ft 374 kts 239°
2026-04-26 15:46 51.11966 20.61300 16449 ft 377 kts 239°
2026-04-26 15:46 51.10806 20.59241 17034 ft 376 kts 240°
2026-04-26 15:47 51.08469 20.55096 17953 ft 376 kts 240°
2026-04-26 15:47 51.04988 20.48937 18167 ft 373 kts 240°
2026-04-26 15:47 51.03268 20.45902 18173 ft 365 kts 240°
2026-04-26 15:48 51.01597 20.42968 18172 ft 353 kts 241°
2026-04-26 15:48 50.99968 20.40102 18180 ft 346 kts 242°
2026-04-26 15:48 50.98364 20.37267 17580 ft 352 kts 241°
2026-04-26 15:48 50.96757 20.34416 17139 ft 350 kts 240°
2026-04-26 15:49 50.95135 20.31553 16794 ft 347 kts 240°
2026-04-26 15:49 50.93525 20.28724 16425 ft 344 kts 240°
2026-04-26 15:49 50.91930 20.25924 16067 ft 341 kts 240°
2026-04-26 15:49 50.90344 20.23142 15721 ft 338 kts 240°
2026-04-26 15:50 50.88771 20.20384 15369 ft 336 kts 239°
2026-04-26 15:50 50.87209 20.17645 15019 ft 334 kts 239°
2026-04-26 15:50 50.85652 20.14920 14672 ft 333 kts 239°
2026-04-26 15:50 50.84105 20.12218 14325 ft 331 kts 239°
2026-04-26 15:51 50.82562 20.09527 13940 ft 329 kts 238°
2026-04-26 15:51 50.80832 20.07086 13530 ft 345 kts 217°
2026-04-26 15:51 50.78524 20.05883 13306 ft 355 kts 192°
2026-04-26 15:51 50.76052 20.05645 12918 ft 358 kts 185°
2026-04-26 15:52 50.73556 20.05709 12490 ft 359 kts 181°
2026-04-26 15:52 50.71071 20.05880 12148 ft 353 kts 180°
2026-04-26 15:52 50.68639 20.06068 11653 ft 348 kts 180°
2026-04-26 15:52 50.67036 20.06187 11286 ft 347 kts 180°
2026-04-26 15:53 50.63845 20.06402 10764 ft 336 kts 180°
2026-04-26 15:53 50.61560 20.06543 10564 ft 323 kts 180°
2026-04-26 15:53 50.59347 20.06671 10270 ft 314 kts 180°
2026-04-26 15:53 50.57176 20.06789 9863 ft 310 kts 180°
2026-04-26 15:54 50.55031 20.06903 9447 ft 306 kts 180°
2026-04-26 15:54 50.52955 20.07013 9109 ft 299 kts 180°
2026-04-26 15:54 50.50868 20.07122 8849 ft 296 kts 180°
2026-04-26 15:54 50.48804 20.07228 8530 ft 299 kts 180°
2026-04-26 15:55 50.46740 20.07333 8146 ft 301 kts 180°
2026-04-26 15:55 50.44645 20.07442 7851 ft 300 kts 180°
2026-04-26 15:55 50.42568 20.07549 7571 ft 298 kts 180°
2026-04-26 15:55 50.40507 20.07657 7319 ft 294 kts 180°
2026-04-26 15:56 50.38466 20.07763 7051 ft 292 kts 180°
2026-04-26 15:56 50.36445 20.07867 6811 ft 289 kts 180°
2026-04-26 15:56 50.34445 20.07970 6543 ft 287 kts 180°
2026-04-26 15:56 50.32458 20.08072 6277 ft 285 kts 180°
2026-04-26 15:57 50.30484 20.08173 6004 ft 283 kts 180°
2026-04-26 15:57 50.28519 20.08274 5717 ft 281 kts 180°
2026-04-26 15:57 50.26568 20.08374 5445 ft 279 kts 180°
2026-04-26 15:57 50.25282 20.08441 5261 ft 278 kts 180°
2026-04-26 15:58 50.22717 20.08572 5008 ft 271 kts 180°
2026-04-26 15:58 50.20905 20.08666 4949 ft 257 kts 181°
2026-04-26 15:58 50.19147 20.08759 4825 ft 243 kts 181°
2026-04-26 15:58 50.17529 20.08842 4757 ft 228 kts 181°
2026-04-26 15:59 50.15990 20.08922 4684 ft 217 kts 181°
2026-04-26 15:59 50.14508 20.08997 4622 ft 212 kts 181°
2026-04-26 15:59 50.13055 20.08949 4513 ft 203 kts 199°
2026-04-26 15:59 50.11986 20.07824 4432 ft 180 kts 248°
2026-04-26 16:00 50.11654 20.06006 4233 ft 177 kts 264°
2026-04-26 16:00 50.11376 20.04112 3989 ft 179 kts 263°
2026-04-26 16:00 50.11100 20.02227 3737 ft 177 kts 264°
2026-04-26 16:00 50.10837 20.00385 3499 ft 171 kts 264°
2026-04-26 16:01 50.10586 19.98607 3268 ft 166 kts 265°
2026-04-26 16:01 50.10342 19.96866 3026 ft 163 kts 264°
2026-04-26 16:01 50.10102 19.95165 2805 ft 158 kts 265°
2026-04-26 16:01 50.09871 19.93520 2596 ft 155 kts 264°
2026-04-26 16:02 50.09643 19.91893 2380 ft 152 kts 265°
2026-04-26 16:02 50.09425 19.90351 2178 ft 140 kts 265°
2026-04-26 16:02 50.09230 19.88955 1978 ft 128 kts 264°
2026-04-26 16:02 50.09109 19.88081 1874 ft 123 kts 264°
2026-04-26 16:03 50.08846 19.86348 1697 ft 122 kts 264°
2026-04-26 16:03 50.08678 19.85029 1494 ft 127 kts 265°
2026-04-26 16:03 50.08486 19.83685 1372 ft 127 kts 264°
2026-04-26 16:03 50.08302 19.82324 1192 ft 129 kts 264°
2026-04-26 16:04 50.08116 19.80967 964 ft 128 kts 263°
2026-04-26 16:04 50.07928 19.79616 812 ft 126 kts 263°
2026-04-26 16:04 50.07749 19.78324 932 ft 136 kts 264°
2026-04-26 16:04 50.07540 19.76705 1413 ft 172 kts 263°
2026-04-26 16:05 50.07291 19.74720 2197 ft 200 kts 265°
2026-04-26 16:05 50.07003 19.72489 3092 ft 219 kts 263°
2026-04-26 16:05 50.06668 19.70151 3701 ft 222 kts 262°
2026-04-26 16:05 50.06316 19.67789 3943 ft 225 kts 261°
2026-04-26 16:06 50.05966 19.65427 3994 ft 222 kts 262°
2026-04-26 16:06 50.05544 19.63088 3984 ft 229 kts 249°
2026-04-26 16:06 50.04558 19.61090 4009 ft 240 kts 224°
2026-04-26 16:06 50.03074 19.59851 3995 ft 247 kts 198°
2026-04-26 16:07 50.01356 19.59648 4001 ft 252 kts 173°
2026-04-26 16:07 49.99630 19.60235 3993 ft 255 kts 167°
2026-04-26 16:07 49.97910 19.60949 3993 ft 257 kts 166°
2026-04-26 16:07 49.96205 19.61766 3986 ft 256 kts 156°
2026-04-26 16:08 49.94782 19.63340 3981 ft 249 kts 130°
2026-04-26 16:08 49.94137 19.64777 3976 ft 243 kts 113°
2026-04-26 16:08 49.93729 19.68115 3990 ft 233 kts 80°
2026-04-26 16:08 49.93935 19.70613 3999 ft 235 kts 76°
2026-04-26 16:09 49.94193 19.73132 3991 ft 237 kts 76°
2026-04-26 16:09 49.94459 19.75657 3986 ft 237 kts 76°
2026-04-26 16:09 49.94725 19.78186 3998 ft 237 kts 76°
2026-04-26 16:09 49.94994 19.80708 3989 ft 237 kts 76°
2026-04-26 16:10 49.95261 19.83232 3988 ft 237 kts 76°
2026-04-26 16:10 49.95524 19.85751 3990 ft 235 kts 76°
2026-04-26 16:10 49.95783 19.88227 3970 ft 230 kts 75°
2026-04-26 16:10 49.96025 19.90649 3982 ft 227 kts 76°
2026-04-26 16:11 49.96265 19.93042 4001 ft 227 kts 76°
2026-04-26 16:11 49.96518 19.95506 4005 ft 228 kts 76°
2026-04-26 16:11 49.96765 19.97944 4001 ft 230 kts 77°
2026-04-26 16:11 49.97023 20.00363 3999 ft 230 kts 76°
2026-04-26 16:12 49.97286 20.02805 3988 ft 229 kts 76°
2026-04-26 16:12 49.97528 20.05250 4000 ft 229 kts 76°
2026-04-26 16:12 49.98010 20.10039 3965 ft 215 kts 76°
2026-04-26 16:13 49.98229 20.12311 3976 ft 211 kts 76°
2026-04-26 16:13 49.98443 20.14567 3975 ft 212 kts 77°
2026-04-26 16:13 49.98664 20.16843 4003 ft 215 kts 76°
2026-04-26 16:13 49.98897 20.19162 3986 ft 219 kts 76°
2026-04-26 16:14 49.99127 20.21509 3997 ft 220 kts 76°
2026-04-26 16:14 49.99498 20.23793 3973 ft 214 kts 54°
2026-04-26 16:14 50.01865 20.24829 3976 ft 188 kts 324°
2026-04-26 16:15 50.02588 20.23175 4007 ft 190 kts 295°
2026-04-26 16:15 50.03358 20.21558 4002 ft 187 kts 321°
2026-04-26 16:15 50.04344 20.20215 3988 ft 189 kts 317°
2026-04-26 16:16 50.06263 20.17387 3986 ft 190 kts 317°
2026-04-26 16:16 50.07229 20.15985 3976 ft 190 kts 317°
2026-04-26 16:16 50.08194 20.14592 3984 ft 189 kts 318°
2026-04-26 16:16 50.09160 20.13202 3994 ft 189 kts 318°
2026-04-26 16:17 50.10127 20.11813 3992 ft 189 kts 317°
2026-04-26 16:17 50.11090 20.10418 3992 ft 189 kts 314°
2026-04-26 16:17 50.11661 20.08625 3994 ft 190 kts 276°
2026-04-26 16:17 50.11488 20.06593 4000 ft 187 kts 269°
2026-04-26 16:18 50.11397 20.04596 3949 ft 185 kts 270°
2026-04-26 16:18 50.10863 20.00520 3514 ft 192 kts 263°
2026-04-26 16:19 50.10302 19.96585 3011 ft 182 kts 263°
2026-04-26 16:19 50.10035 19.94688 2750 ft 177 kts 264°
2026-04-26 16:19 50.09613 19.91693 2353 ft 159 kts 264°
2026-04-26 16:20 50.09308 19.89500 2052 ft 155 kts 263°
2026-04-26 16:20 50.08890 19.86519 1665 ft 131 kts 263°
2026-04-26 16:20 50.08701 19.85158 1487 ft 128 kts 263°
2026-04-26 16:21 50.08505 19.83770 1346 ft 131 kts 262°
2026-04-26 16:21 50.08313 19.82407 1186 ft 126 kts 264°
2026-04-26 16:21 50.08130 19.81096 1010 ft 123 kts 264°
2026-04-26 16:21 50.07953 19.79795 814 ft 122 kts 264°
2026-04-26 16:22 50.07795 19.78608 800 ft 97 kts 258°
2026-04-26 16:22 50.07674 19.77761 797 ft 63 kts 257°
2026-04-26 16:22 50.07604 19.77269 800 ft 30 kts 258°
2026-04-26 16:22 50.07581 19.77093 802 ft 24 kts 258°
2026-04-26 16:23 50.07548 19.76884 801 ft 14 kts 240°
2026-04-26 16:23 50.07464 19.76850 800 ft 14 kts 169°
2026-04-26 16:23 50.07391 19.76872 799 ft 10 kts 169°
2026-04-26 16:23 50.07322 19.76901 799 ft 10 kts 144°
2026-04-26 16:24 50.07309 19.76969 799 ft 3 kts 80°
2026-04-26 16:24 50.07313 19.77005 799 ft 3 kts 79°
2026-04-26 16:24 50.07318 19.77041 799 ft 3 kts 77°
2026-04-26 16:24 50.07323 19.77076 799 ft 3 kts 77°
2026-04-26 16:25 50.07328 19.77110 799 ft 3 kts 77°
2026-04-26 16:25 50.07333 19.77144 799 ft 3 kts 78°
2026-04-26 16:25 50.07341 19.77203 799 ft 9 kts 78°
2026-04-26 16:25 50.07360 19.77337 799 ft 17 kts 77°
2026-04-26 16:26 50.07390 19.77545 799 ft 22 kts 78°
2026-04-26 16:26 50.07421 19.77773 799 ft 21 kts 78°
2026-04-26 16:26 50.07452 19.77994 799 ft 21 kts 78°
2026-04-26 16:26 50.07481 19.78206 799 ft 20 kts 78°
2026-04-26 16:27 50.07510 19.78414 799 ft 19 kts 77°
2026-04-26 16:27 50.07538 19.78617 799 ft 19 kts 77°
2026-04-26 16:27 50.07565 19.78810 799 ft 18 kts 78°
2026-04-26 16:27 50.07592 19.79000 799 ft 17 kts 78°
2026-04-26 16:28 50.07616 19.79179 799 ft 17 kts 77°
2026-04-26 16:28 50.07642 19.79356 799 ft 16 kts 77°
2026-04-26 16:28 50.07665 19.79522 799 ft 16 kts 78°
2026-04-26 16:28 50.07687 19.79684 799 ft 15 kts 77°
2026-04-26 16:29 50.07704 19.79826 799 ft 10 kts 95°
2026-04-26 16:29 50.07653 19.79886 799 ft 10 kts 169°
2026-04-26 16:29 50.07587 19.79907 799 ft 10 kts 168°
2026-04-26 16:29 50.07523 19.79928 799 ft 9 kts 168°
2026-04-26 16:30 50.07459 19.79948 799 ft 9 kts 167°
2026-04-26 16:30 50.07399 19.79976 799 ft 9 kts 161°
2026-04-26 16:30 50.07340 19.79996 799 ft 9 kts 168°
2026-04-26 16:30 50.07321 19.80002 799 ft 0 kts 167°
2026-04-26 16:31 50.07318 19.80003 799 ft 1 kts 168°
2026-04-26 16:31 50.07309 19.80006 799 ft 0 kts 168°